When you browse on this site, cookies collect data to enhance your experience and personalize the content and advertising you see.
Visit our Privacy Policy to learn more. By continuing to use the site, you agree to this use of cookies and data.
  • In Slovakia
  • List of Countries
  • For 7 days
  • Water Temperature
  • Weather Map
  • Weather Widgets
  • user-avatar
    Login

    Hourly Weather Río Gallegos

    Today, 19 November, Tuesday

    Time Temperature Precipitation Wind Pressure Humidity
    00:00 +9°C° 0 mm 3 mps 747 mmHg 65%
    01:00 +8°C° 0 mm 4 mps 745 mmHg 67%
    02:00 +8°C° 0 mm 5 mps 745 mmHg 68%
    03:00 +8°C° 0 mm 6 mps 744 mmHg 69%
    04:00 +8°C° 0 mm 7 mps 743 mmHg 70%
    05:00 +10°C° 0 mm 7 mps 742 mmHg 65%
    06:00 +11°C° 0 mm 7 mps 741 mmHg 61%
    07:00 +12°C° 0 mm 7 mps 741 mmHg 57%
    08:00 +14°C° 0 mm 7 mps 740 mmHg 54%
    09:00 +14°C° 0 mm 7 mps 740 mmHg 51%
    10:00 +15°C° 0 mm 6 mps 740 mmHg 48%
    11:00 +15°C° 0 mm 7 mps 739 mmHg 49%
    12:00 +13°C° 0 mm 8 mps 739 mmHg 51%
    13:00 +13°C° 0 mm 9 mps 739 mmHg 52%
    14:00 +12°C° 0 mm 9 mps 739 mmHg 52%
    15:00 +12°C° 0 mm 9 mps 739 mmHg 51%
    16:00 +11°C° 0 mm 9 mps 739 mmHg 51%
    17:00 +9°C° 0.1 mm 10 mps 740 mmHg 52%
    18:00 +9°C° 0.1 mm 10 mps 741 mmHg 53%
    19:00 +8°C° 0.1 mm 10 mps 741 mmHg 54%
    20:00 +7°C° 0 mm 10 mps 742 mmHg 57%
    21:00 +7°C° 0 mm 11 mps 743 mmHg 60%
    22:00 +6°C° 0 mm 11 mps 744 mmHg 64%
    23:00 +4°C° 0 mm 11 mps 745 mmHg 63%

    Tomorrow, 20 November, Wednesday

    Time Temperature Precipitation Wind Pressure Humidity
    00:00 +3°C° 0 mm 12 mps 746 mmHg 61%
    01:00 +2°C° 0 mm 12 mps 747 mmHg 60%
    02:00 +2°C° 0 mm 12 mps 747 mmHg 60%
    03:00 +2°C° 0 mm 11 mps 748 mmHg 61%
    04:00 +1°C° 0 mm 11 mps 748 mmHg 61%
    05:00 +2°C° 0 mm 11 mps 749 mmHg 57%
    06:00 +4°C° 0 mm 11 mps 749 mmHg 53%
    07:00 +6°C° 0 mm 11 mps 750 mmHg 50%
    08:00 +7°C° 0 mm 10 mps 750 mmHg 46%
    09:00 +8°C° 0 mm 10 mps 750 mmHg 42%
    10:00 +10°C° 0 mm 9 mps 750 mmHg 39%
    11:00 +11°C° 0 mm 9 mps 750 mmHg 39%
    12:00 +12°C° 0 mm 9 mps 750 mmHg 39%
    13:00 +12°C° 0 mm 9 mps 750 mmHg 39%
    14:00 +12°C° 0 mm 9 mps 750 mmHg 39%
    15:00 +12°C° 0 mm 10 mps 750 mmHg 38%
    16:00 +12°C° 0 mm 10 mps 750 mmHg 38%
    17:00 +11°C° 0 mm 9 mps 751 mmHg 41%
    18:00 +10°C° 0 mm 9 mps 751 mmHg 44%
    19:00 +9°C° 0 mm 8 mps 751 mmHg 47%
    20:00 +8°C° 0 mm 7 mps 752 mmHg 50%
    21:00 +7°C° 0 mm 6 mps 752 mmHg 54%
    22:00 +7°C° 0 mm 5 mps 753 mmHg 57%
    23:00 +6°C° 0 mm 5 mps 753 mmHg 59%

    Day after tomorrow, 21 November, Thursday

    Time Temperature Precipitation Wind Pressure Humidity
    00:00 +6°C° 0 mm 4 mps 753 mmHg 61%
    01:00 +5°C° 0 mm 4 mps 754 mmHg 63%
    02:00 +5°C° 0 mm 4 mps 754 mmHg 66%
    03:00 +5°C° 0 mm 4 mps 754 mmHg 69%
    04:00 +4°C° 0 mm 4 mps 755 mmHg 73%
    05:00 +6°C° 0 mm 4 mps 755 mmHg 66%
    06:00 +8°C° 0 mm 5 mps 755 mmHg 60%
    07:00 +9°C° 0 mm 6 mps 755 mmHg 54%
    08:00 +10°C° 0 mm 6 mps 755 mmHg 50%
    09:00 +13°C° 0 mm 6 mps 756 mmHg 46%
    10:00 +14°C° 0 mm 7 mps 756 mmHg 41%
    11:00 +14°C° 0.1 mm 7 mps 756 mmHg 41%
    12:00 +14°C° 0.1 mm 7 mps 756 mmHg 41%
    13:00 +15°C° 0.1 mm 6 mps 756 mmHg 40%
    14:00 +14°C° 0 mm 6 mps 756 mmHg 42%
    15:00 +14°C° 0 mm 6 mps 756 mmHg 43%
    16:00 +14°C° 0 mm 6 mps 756 mmHg 45%
    17:00 +13°C° 0 mm 6 mps 756 mmHg 49%
    18:00 +12°C° 0 mm 5 mps 756 mmHg 54%
    19:00 +10°C° 0 mm 5 mps 756 mmHg 58%
    20:00 +10°C° 0 mm 4 mps 756 mmHg 61%
    21:00 +10°C° 0 mm 3 mps 757 mmHg 63%
    22:00 +9°C° 0 mm 2 mps 757 mmHg 66%
    23:00 +9°C° 0 mm 2 mps 757 mmHg 65%

    22 November, Friday

    Time Temperature Precipitation Wind Pressure Humidity
    00:00 +9°C° 0 mm 2 mps 757 mmHg 64%
    01:00 +9°C° 0 mm 2 mps 757 mmHg 63%
    02:00 +10°C° 0 mm 1 mps 757 mmHg 63%
    03:00 +10°C° 0 mm 1 mps 757 mmHg 62%
    04:00 +10°C° 0 mm 1 mps 757 mmHg 62%
    05:00 +11°C° 0 mm 1 mps 758 mmHg 57%
    06:00 +13°C° 0 mm 2 mps 758 mmHg 52%
    07:00 +14°C° 0 mm 2 mps 758 mmHg 47%
    08:00 +15°C° 0 mm 2 mps 758 mmHg 43%
    09:00 +16°C° 0 mm 3 mps 758 mmHg 39%
    10:00 +17°C° 0 mm 3 mps 758 mmHg 35%
    11:00 +17°C° 0 mm 4 mps 758 mmHg 36%
    12:00 +17°C° 0 mm 5 mps 758 mmHg 36%
    13:00 +17°C° 0 mm 6 mps 758 mmHg 37%
    14:00 +17°C° 0 mm 7 mps 757 mmHg 37%
    15:00 +16°C° 0 mm 7 mps 757 mmHg 38%
    16:00 +16°C° 0 mm 8 mps 757 mmHg 38%
    17:00 +15°C° 0 mm 8 mps 757 mmHg 43%
    18:00 +14°C° 0 mm 7 mps 757 mmHg 47%
    19:00 +11°C° 0 mm 7 mps 757 mmHg 51%
    20:00 +11°C° 0 mm 8 mps 756 mmHg 54%
    21:00 +10°C° 0 mm 8 mps 756 mmHg 57%
    22:00 +10°C° 0 mm 9 mps 755 mmHg 60%
    23:00 +10°C° 0 mm 8 mps 754 mmHg 62%

    23 November, Saturday

    Time Temperature Precipitation Wind Pressure Humidity
    00:00 +9°C° 0 mm 8 mps 753 mmHg 64%
    01:00 +9°C° 0 mm 8 mps 752 mmHg 66%
    02:00 +9°C° 0 mm 7 mps 752 mmHg 66%
    03:00 +10°C° 0 mm 6 mps 751 mmHg 66%
    04:00 +10°C° 0 mm 5 mps 750 mmHg 66%
    05:00 +12°C° 0 mm 5 mps 750 mmHg 60%
    06:00 +13°C° 0 mm 4 mps 749 mmHg 54%
    07:00 +16°C° 0 mm 3 mps 749 mmHg 48%
    08:00 +17°C° 0 mm 4 mps 748 mmHg 44%
    09:00 +18°C° 0 mm 4 mps 748 mmHg 41%
    10:00 +19°C° 0 mm 5 mps 747 mmHg 37%
    11:00 +20°C° 0 mm 5 mps 747 mmHg 36%
    12:00 +20°C° 0 mm 5 mps 746 mmHg 35%
    13:00 +21°C° 0 mm 5 mps 745 mmHg 34%
    14:00 +21°C° 0 mm 5 mps 745 mmHg 36%
    15:00 +21°C° 0 mm 5 mps 744 mmHg 37%
    16:00 +20°C° 0 mm 5 mps 744 mmHg 39%
    17:00 +19°C° 0 mm 5 mps 744 mmHg 43%
    18:00 +17°C° 0 mm 4 mps 744 mmHg 48%
    19:00 +15°C° 0 mm 4 mps 744 mmHg 53%
    20:00 +14°C° 0 mm 6 mps 744 mmHg 57%
    21:00 +12°C° 0 mm 8 mps 744 mmHg 60%
    22:00 +9°C° 0 mm 11 mps 744 mmHg 64%
    23:00 +9°C° 0 mm 10 mps 743 mmHg 68%

    24 November, Sunday

    Time Temperature Precipitation Wind Pressure Humidity
    00:00 +9°C° 0 mm 10 mps 743 mmHg 72%
    01:00 +8°C° 0 mm 10 mps 743 mmHg 76%
    02:00 +7°C° 0.7 mm 11 mps 743 mmHg 79%
    03:00 +6°C° 0.7 mm 11 mps 743 mmHg 82%
    04:00 +4°C° 0.7 mm 12 mps 744 mmHg 86%
    05:00 +4°C° 0.6 mm 13 mps 744 mmHg 82%
    06:00 +4°C° 0.6 mm 14 mps 745 mmHg 79%
    07:00 +4°C° 0.6 mm 15 mps 745 mmHg 75%
    08:00 +4°C° 0.2 mm 14 mps 745 mmHg 67%
    09:00 +5°C° 0.2 mm 14 mps 746 mmHg 59%
    10:00 +6°C° 0.2 mm 14 mps 746 mmHg 51%
    11:00 +8°C° 0 mm 14 mps 746 mmHg 45%
    12:00 +9°C° 0 mm 14 mps 746 mmHg 39%
    13:00 +10°C° 0 mm 14 mps 746 mmHg 33%
    14:00 +10°C° 0 mm 14 mps 746 mmHg 32%
    15:00 +10°C° 0 mm 13 mps 746 mmHg 30%
    16:00 +10°C° 0 mm 13 mps 746 mmHg 29%
    17:00 +9°C° 0 mm 12 mps 747 mmHg 34%
    18:00 +8°C° 0 mm 11 mps 747 mmHg 39%
    19:00 +7°C° 0 mm 10 mps 748 mmHg 44%
    20:00 +6°C° 0 mm 10 mps 748 mmHg 49%
    21:00 +5°C° 0 mm 9 mps 748 mmHg 54%
    22:00 +3°C° 0 mm 9 mps 748 mmHg 60%
    23:00 +4°C° 0 mm 8 mps 748 mmHg 60%
    Show more